Glasgow, KY

5:58 AM CDT on March 27, 2017 (GMT -0500)
Glasgow Municipal

Weather History for KGLW - November, 2013

Change the Weather History Date:

Tuesday, November 5, 2013

  Actual Average Record
Temperature  
Mean Temperature 58 °F -  
Max Temperature 66 °F 57 °F 79 °F (1959)
Min Temperature 50 °F 37 °F 12 °F (1991)
Degree Days  
Heating Degree Days 7    
Growing Degree Days 8 (Base 50)    
Moisture  
Dew Point 39 °F    
Average Humidity 52    
Maximum Humidity 63    
Minimum Humidity 38    
Precipitation  
Precipitation 0.00 in - - ()
Sea Level Pressure  
Sea Level Pressure 30.32 in    
Wind  
Wind Speed 3 mph (SSE)    
Max Wind Speed 8 mph    
Max Gust Speed -    
Visibility 10 miles    
Events      
Averages and records for this station are not official NWS values.
T = Trace of Precipitation, MM = Missing Value Source: NWS Daily Summary

Daily Weather History Graph

Daily Weather History Graph

Search for Another Location

Airport or City:

Trip Planner

Search our weather history database for the weather conditions in past years. The results will help you decide how hot, cold, wet, or windy it might be!

Date:

Astronomy

Nov. 05, 2013 Rise Set
Actual Time 6:12 AM CST 4:42 PM CST
Civil Twilight 5:45 AM CST 5:09 PM CST
Nautical Twilight 5:14 AM CST 5:40 PM CST
Astronomical Twilight 4:43 AM CST 6:10 PM CST
Moon 8:24 AM CST (11/5) 6:44 PM CST (11/5)
Length of Visible Light 11h 24m
Length of Day
10h 29m
Waxing Crescent, 7% of the Moon is Illuminated
Nov 5
Waxing Crescent
Nov 9
First Quarter
Nov 17
Full
Nov 25
Last Quarter
Dec 2
New

Hourly Weather History & Observations

Time (CST) Temp. Dew Point Humidity Pressure Visibility Wind Dir Wind Speed Gust Speed Precip Events Conditions
12:15 AM 53.2 °F 39.4 °F 59% 30.35 in 10.0 mi SSE 3.5 mph - N/A   Clear
12:35 AM 53.6 °F 38.8 °F 57% 30.35 in 10.0 mi South 3.5 mph - N/A   Clear
12:55 AM 53.4 °F 38.5 °F 57% 30.35 in 10.0 mi Calm Calm - N/A   Clear
1:15 AM 52.0 °F 38.5 °F 60% 30.36 in 10.0 mi Calm Calm - N/A   Clear
1:35 AM 51.4 °F 38.3 °F 61% 30.36 in 10.0 mi South 3.5 mph - N/A   Clear
1:55 AM 51.8 °F 37.9 °F 59% 30.35 in 10.0 mi Calm Calm - N/A   Clear
2:15 AM 51.8 °F 37.8 °F 59% 30.36 in 10.0 mi Calm Calm - N/A   Clear
2:35 AM 52.2 °F 37.6 °F 58% 30.37 in 10.0 mi Calm Calm - N/A   Clear
2:55 AM 52.0 °F 37.4 °F 58% 30.36 in 10.0 mi Calm Calm - N/A   Clear
3:15 AM 51.3 °F 37.4 °F 59% 30.35 in 10.0 mi SSE 3.5 mph - N/A   Clear
3:35 AM 51.4 °F 36.9 °F 58% 30.36 in 10.0 mi South 3.5 mph - N/A   Clear
3:55 AM 51.4 °F 36.7 °F 57% 30.36 in 10.0 mi SE 3.5 mph - N/A   Clear
4:15 AM 51.3 °F 36.3 °F 57% 30.36 in 10.0 mi Calm Calm - N/A   Clear
4:35 AM 50.5 °F 36.1 °F 58% 30.35 in 10.0 mi SE 4.6 mph - N/A   Clear
4:55 AM 50.7 °F 35.8 °F 57% 30.36 in 10.0 mi South 3.5 mph - N/A   Clear
5:15 AM 50.9 °F 35.6 °F 56% 30.36 in 10.0 mi Calm Calm - N/A   Clear
5:35 AM 50.7 °F 35.6 °F 56% 30.36 in 10.0 mi SSE 3.5 mph - N/A   Clear
5:55 AM 50.7 °F 35.4 °F 56% 30.36 in 10.0 mi Calm Calm - N/A   Clear
6:15 AM 50.7 °F 35.1 °F 55% 30.38 in 10.0 mi Calm Calm - N/A   Clear
6:35 AM 50.5 °F 35.4 °F 56% 30.38 in 10.0 mi Calm Calm - N/A   Clear
6:55 AM 50.5 °F 35.8 °F 57% 30.38 in 10.0 mi Calm Calm - N/A   Clear
7:15 AM 51.4 °F 36.5 °F 57% 30.38 in 10.0 mi SE 3.5 mph - N/A   Clear
7:35 AM 53.2 °F 36.1 °F 52% 30.39 in 10.0 mi SSE 3.5 mph - N/A   Clear
7:55 AM 54.3 °F 36.0 °F 50% 30.39 in 10.0 mi SE 4.6 mph - N/A   Clear
8:15 AM 54.1 °F 35.6 °F 50% 30.40 in 10.0 mi SSE 3.5 mph - N/A   Clear
8:35 AM 54.7 °F 35.6 °F 49% 30.40 in 10.0 mi SSE 6.9 mph - N/A   Clear
8:55 AM 55.2 °F 35.8 °F 48% 30.40 in 10.0 mi SSE 6.9 mph - N/A   Clear
9:15 AM 55.8 °F 36.3 °F 48% 30.40 in 10.0 mi SSE 5.8 mph - N/A   Clear
9:35 AM 56.3 °F 36.1 °F 47% 30.41 in 10.0 mi SSE 4.6 mph - N/A   Clear
9:55 AM 57.0 °F 36.3 °F 46% 30.41 in 10.0 mi SSE 4.6 mph - N/A   Clear
10:15 AM 57.6 °F 36.1 °F 45% 30.41 in 10.0 mi South 5.8 mph - N/A   Clear
10:35 AM 57.7 °F 36.3 °F 45% 30.40 in 10.0 mi SSW 5.8 mph - N/A   Clear
10:55 AM 59.4 °F 37.2 °F 44% 30.39 in 10.0 mi South 5.8 mph - N/A   Clear
11:15 AM 61.2 °F 37.8 °F 42% 30.38 in 10.0 mi SSW 8.1 mph - N/A   Clear
11:35 AM 61.5 °F 38.1 °F 42% 30.37 in 10.0 mi SSE 4.6 mph - N/A   Clear
11:55 AM 61.9 °F 38.1 °F 41% 30.36 in 10.0 mi South 4.6 mph - N/A   Clear
12:15 PM 62.2 °F 37.9 °F 41% 30.35 in 10.0 mi ESE 6.9 mph - N/A   Clear
12:35 PM 62.6 °F 39.2 °F 42% 30.33 in 10.0 mi SSE 6.9 mph - N/A   Clear
12:55 PM 63.9 °F 38.7 °F 39% 30.33 in 10.0 mi SE 6.9 mph - N/A   Clear
1:15 PM 64.4 °F 39.9 °F 41% 30.32 in 10.0 mi SE 6.9 mph - N/A   Clear
1:35 PM 64.9 °F 40.1 °F 40% 30.31 in 10.0 mi SE 8.1 mph - N/A   Clear
1:55 PM 65.3 °F 40.8 °F 41% 30.30 in 10.0 mi ESE 5.8 mph - N/A   Clear
2:15 PM 66.4 °F 40.6 °F 39% 30.30 in 10.0 mi SE 6.9 mph - N/A   Clear
2:35 PM 66.4 °F 40.1 °F 38% 30.29 in 10.0 mi SSE 5.8 mph - N/A   Clear
2:55 PM 66.7 °F 40.6 °F 39% 30.29 in 10.0 mi ESE 4.6 mph - N/A   Scattered Clouds
3:15 PM 66.6 °F 40.6 °F 39% 30.28 in 10.0 mi SE 8.1 mph - N/A   Scattered Clouds
3:35 PM 66.4 °F 40.5 °F 39% 30.27 in 10.0 mi ESE 8.1 mph - N/A   Clear
3:55 PM 65.3 °F 40.5 °F 40% 30.26 in 10.0 mi ESE 5.8 mph - N/A   Clear
4:15 PM 64.8 °F 41.7 °F 43% 30.26 in 10.0 mi ESE 5.8 mph - N/A   Clear
4:35 PM 62.4 °F 41.9 °F 47% 30.26 in 10.0 mi ESE 3.5 mph - N/A   Clear
4:55 PM 60.6 °F 41.9 °F 50% 30.26 in 10.0 mi East 4.6 mph - N/A   Clear
5:15 PM 59.2 °F 41.9 °F 53% 30.26 in 7.0 mi East 3.5 mph - N/A   Clear
5:35 PM 57.7 °F 42.1 °F 56% 30.26 in 10.0 mi ESE 3.5 mph - N/A   Clear
5:55 PM 56.3 °F 42.6 °F 60% 30.26 in 10.0 mi ESE 3.5 mph - N/A   Clear
6:15 PM 56.3 °F 42.6 °F 60% 30.26 in 10.0 mi Calm Calm - N/A   Clear
6:35 PM 57.4 °F 42.6 °F 58% 30.25 in 10.0 mi Calm Calm - N/A   Clear
6:55 PM 56.8 °F 42.8 °F 59% 30.25 in 10.0 mi Calm Calm - N/A   Clear
7:15 PM 57.0 °F 42.8 °F 59% 30.25 in 10.0 mi Calm Calm - N/A   Clear
7:35 PM 57.9 °F 42.6 °F 57% 30.25 in 10.0 mi Calm Calm - N/A   Clear
7:55 PM 58.3 °F 42.4 °F 56% 30.25 in 10.0 mi Calm Calm - N/A   Clear
8:15 PM 58.1 °F 42.3 °F 56% 30.25 in 10.0 mi Calm Calm - N/A   Clear
8:35 PM 57.6 °F 42.4 °F 57% 30.25 in 10.0 mi SSE 3.5 mph - N/A   Clear
8:55 PM 57.4 °F 42.4 °F 57% 30.25 in 10.0 mi SSE 3.5 mph - N/A   Clear
9:15 PM 57.0 °F 42.4 °F 58% 30.25 in 10.0 mi SSE 3.5 mph - N/A   Clear
9:35 PM 56.8 °F 42.4 °F 59% 30.25 in 10.0 mi SSE 3.5 mph - N/A   Clear
9:55 PM 56.3 °F 42.8 °F 61% 30.25 in 10.0 mi SSE 4.6 mph - N/A   Clear
10:15 PM 56.3 °F 42.8 °F 61% 30.25 in 10.0 mi SSE 4.6 mph - N/A   Clear
10:35 PM 56.3 °F 42.8 °F 61% 30.25 in 10.0 mi SSE 4.6 mph - N/A   Clear
10:55 PM 56.3 °F 42.8 °F 61% 30.24 in 10.0 mi SSE 4.6 mph - N/A   Clear
11:15 PM 56.3 °F 42.8 °F 61% 30.24 in 10.0 mi South 4.6 mph - N/A   Clear
11:35 PM 55.8 °F 42.8 °F 62% 30.24 in 10.0 mi SSE 4.6 mph - N/A   Clear
11:55 PM 55.4 °F 42.8 °F 63% 30.23 in 10.0 mi SSE 5.8 mph - N/A   Clear